User: anonymous   Login
Location: Harwich
(41.6860°N, 70.0760°W)
Time: 16:38:30
(UTC-04:00)
Language:

Cosmos 2173 Rocket - Orbit

View from above orbital plane
View from above orbital plane
View from above satellite
View from above satellite

Ground track
Ground track

The orbit data is extracted from the following two-line orbital elements,

1 21797U 91081B   16126.83854321 +.00000090 +00000-0 +74091-4 0  9999
2 21797 082.9557 004.6922 0038684 147.9588 270.5028 13.77368690228059
Epoch (UTC): 05 May 2016 20:07:30
Eccentricity: 0.0038684
inclination: 82.9557°
perigee height: 945 km
apogee height: 1001 km
right ascension of ascending node: 4.6922°
argument of perigee: 147.9588°
revolutions per day: 13.77368690
mean anomaly at epoch: 270.5028°
orbit number at epoch: 22805

The dashed part of the orbit path shows where the satellite is in the earth's shadow,  

DLR